Time,TemperatureF,DewpointF,PressureIn,WindDirection,WindDirectionDegrees,WindSpeedMPH,WindSpeedGustMPH,Humidity,HourlyPrecipIn,Conditions,Clouds,dailyrainin,SolarRadiationWatts/m^2,SoftwareType,DateUTC
2013-05-17 00:21:00,45.0,38.0,-100.00,SW,229,1.0,3.0,77,0.00,,,0.03,0.000000,,2013-05-17 06:21:00,
2013-05-17 00:32:00,45.0,38.0,-100.00,SW,229,1.0,3.0,77,0.00,,,0.03,0.000000,,2013-05-17 06:32:00,
2013-05-17 00:42:00,45.0,38.0,-100.00,SW,229,1.0,3.0,77,0.00,,,0.03,0.000000,,2013-05-17 06:42:00,
2013-05-17 00:51:00,45.0,38.0,-100.00,SW,229,1.0,3.0,77,0.00,,,0.03,0.000000,,2013-05-17 06:51:00,
2013-05-17 01:21:00,44.0,39.0,-100.00,SSE,149,0.0,3.0,84,0.01,,,0.04,0.000000,,2013-05-17 07:21:00,
2013-05-17 01:32:00,44.0,39.0,-100.00,SSE,149,0.0,3.0,84,0.01,,,0.04,0.000000,,2013-05-17 07:32:00,
2013-05-17 01:43:00,44.0,39.0,-100.00,SSE,149,0.0,3.0,84,0.01,,,0.04,0.000000,,2013-05-17 07:43:00,
2013-05-17 01:53:00,44.0,39.0,-100.00,SSE,149,0.0,3.0,84,0.01,,,0.04,0.000000,,2013-05-17 07:53:00,
2013-05-17 02:22:00,44.0,40.0,-100.00,SSW,213,1.0,3.0,86,0.00,,,0.02,0.000000,,2013-05-17 08:22:00,
2013-05-17 02:33:00,44.0,40.0,-100.00,SSW,213,1.0,3.0,86,0.00,,,0.02,0.000000,,2013-05-17 08:33:00,
2013-05-17 02:42:00,44.0,40.0,-100.00,SSW,213,1.0,3.0,86,0.00,,,0.02,0.000000,,2013-05-17 08:42:00,
2013-05-17 02:51:00,44.0,40.0,-100.00,SSW,213,1.0,3.0,86,0.00,,,0.02,0.000000,,2013-05-17 08:51:00,
2013-05-17 03:22:00,43.0,42.0,-100.00,East,80,0.0,3.0,95,0.04,,,0.05,0.000000,,2013-05-17 09:22:00,
2013-05-17 03:33:00,43.0,42.0,-100.00,East,80,0.0,3.0,95,0.04,,,0.05,0.000000,,2013-05-17 09:33:00,
2013-05-17 03:42:00,43.0,42.0,-100.00,East,80,0.0,3.0,95,0.04,,,0.05,0.000000,,2013-05-17 09:42:00,
2013-05-17 03:53:00,43.0,42.0,-100.00,East,80,0.0,3.0,95,0.04,,,0.05,0.000000,,2013-05-17 09:53:00,
2013-05-17 04:23:00,43.0,42.0,-100.00,NNE,12,0.0,2.0,97,0.04,,,0.09,0.000000,,2013-05-17 10:23:00,
2013-05-17 04:32:00,43.0,42.0,-100.00,NNE,12,0.0,2.0,97,0.04,,,0.09,0.000000,,2013-05-17 10:32:00,
2013-05-17 04:42:00,43.0,42.0,-100.00,NNE,12,0.0,2.0,97,0.04,,,0.09,0.000000,,2013-05-17 10:42:00,
2013-05-17 04:53:00,43.0,42.0,-100.00,NNE,12,0.0,2.0,97,0.04,,,0.09,0.000000,,2013-05-17 10:53:00,
2013-05-17 05:22:00,42.0,41.0,-100.00,ESE,103,0.0,2.0,97,0.06,,,0.15,0.000000,,2013-05-17 11:22:00,
2013-05-17 05:34:00,42.0,41.0,-100.00,ESE,103,0.0,2.0,97,0.06,,,0.15,0.000000,,2013-05-17 11:34:00,
2013-05-17 05:42:00,42.0,41.0,-100.00,ESE,103,0.0,2.0,97,0.06,,,0.15,0.000000,,2013-05-17 11:42:00,
2013-05-17 05:52:00,42.0,41.0,-100.00,ESE,103,0.0,2.0,97,0.06,,,0.15,0.000000,,2013-05-17 11:52:00,
2013-05-17 06:23:00,42.0,41.0,-100.00,West,259,0.0,1.0,98,0.00,,,0.15,0.000000,,2013-05-17 12:23:00,
2013-05-17 06:32:00,42.0,41.0,-100.00,West,259,0.0,1.0,98,0.00,,,0.15,0.000000,,2013-05-17 12:32:00,
2013-05-17 06:43:00,42.0,41.0,-100.00,West,259,0.0,1.0,98,0.00,,,0.15,0.000000,,2013-05-17 12:43:00,
2013-05-17 06:53:00,42.0,41.0,-100.00,West,259,0.0,1.0,98,0.00,,,0.15,0.000000,,2013-05-17 12:53:00,
2013-05-17 07:23:00,42.0,41.0,-100.00,WNW,297,1.0,3.0,98,0.01,,,0.16,6.000000,,2013-05-17 13:23:00,
2013-05-17 07:33:00,42.0,41.0,-100.00,WNW,297,1.0,3.0,98,0.01,,,0.16,6.000000,,2013-05-17 13:33:00,
2013-05-17 07:42:00,42.0,41.0,-100.00,WNW,297,1.0,3.0,98,0.01,,,0.16,6.000000,,2013-05-17 13:42:00,
2013-05-17 07:52:00,42.0,41.0,-100.00,WNW,297,1.0,3.0,98,0.01,,,0.16,6.000000,,2013-05-17 13:52:00,
2013-05-17 08:22:00,43.0,42.0,-100.00,West,261,0.0,4.0,98,0.00,,,0.16,30.000000,,2013-05-17 14:22:00,
2013-05-17 08:34:00,43.0,42.0,-100.00,West,261,0.0,4.0,98,0.00,,,0.16,30.000000,,2013-05-17 14:34:00,
2013-05-17 08:42:00,43.0,42.0,-100.00,West,261,0.0,4.0,98,0.00,,,0.16,30.000000,,2013-05-17 14:42:00,
2013-05-17 08:53:00,43.0,42.0,-100.00,West,261,0.0,4.0,98,0.00,,,0.16,30.000000,,2013-05-17 14:53:00,
2013-05-17 09:25:00,43.0,42.0,-100.00,WNW,299,2.0,4.0,98,0.01,,,0.17,76.000000,,2013-05-17 15:25:00,
2013-05-17 09:37:00,43.0,42.0,-100.00,WNW,299,2.0,4.0,98,0.01,,,0.17,76.000000,,2013-05-17 15:37:00,
2013-05-17 09:47:00,43.0,42.0,-100.00,WNW,299,2.0,4.0,98,0.01,,,0.17,76.000000,,2013-05-17 15:47:00,
2013-05-17 09:56:00,43.0,42.0,-100.00,WNW,299,2.0,4.0,98,0.01,,,0.17,76.000000,,2013-05-17 15:56:00,
2013-05-17 10:26:00,44.0,43.0,-100.00,West,276,2.0,6.0,98,0.01,,,0.18,120.000000,,2013-05-17 16:26:00,
2013-05-17 10:37:00,44.0,43.0,-100.00,West,276,2.0,6.0,98,0.01,,,0.18,120.000000,,2013-05-17 16:37:00,
2013-05-17 10:49:00,44.0,43.0,-100.00,West,276,2.0,6.0,98,0.01,,,0.18,120.000000,,2013-05-17 16:49:00,
2013-05-17 10:56:00,44.0,43.0,-100.00,West,276,2.0,6.0,98,0.01,,,0.18,120.000000,,2013-05-17 16:56:00,
2013-05-17 10:58:00,44.0,43.0,-100.00,WNW,282,2.0,6.0,97,0.02,,,0.20,115.000000,,2013-05-17 16:58:00,
2013-05-17 11:29:00,44.0,43.0,-100.00,WNW,282,2.0,6.0,97,0.02,,,0.20,115.000000,,2013-05-17 17:29:00,
2013-05-17 11:40:00,44.0,-99.9,-100.00,WNW,282,2.0,6.0,97,0.02,,,0.20,115.000000,,2013-05-17 17:40:00,
2013-05-17 11:49:00,44.0,43.0,-100.00,WNW,282,2.0,6.0,97,0.02,,,0.20,115.000000,,2013-05-17 17:49:00,
2013-05-17 11:58:00,44.0,42.0,-100.00,WNW,302,2.0,6.0,94,0.04,,,0.24,155.000000,,2013-05-17 17:58:00,
2013-05-17 12:30:00,44.0,42.0,-100.00,WNW,302,2.0,6.0,94,0.04,,,0.24,155.000000,,2013-05-17 18:30:00,
2013-05-17 12:40:00,44.0,-99.9,-100.00,WNW,302,2.0,6.0,94,0.04,,,0.24,155.000000,,2013-05-17 18:40:00,
2013-05-17 12:50:00,-999.0,-99.9,-100.00,WNW,302,2.0,6.0,94,0.04,,,0.24,155.000000,,2013-05-17 18:50:00,
2013-05-17 12:58:00,46.0,-99.9,-100.00,WSW,248,2.0,5.0,91,0.01,,,0.25,284.000000,,2013-05-17 18:58:00,
2013-05-17 13:30:00,46.0,44.0,-100.00,WSW,248,2.0,5.0,91,0.01,,,0.25,284.000000,,2013-05-17 19:30:00,
2013-05-17 13:40:00,46.0,44.0,-100.00,WSW,248,2.0,5.0,91,0.01,,,0.25,284.000000,,2013-05-17 19:40:00,
2013-05-17 13:50:00,46.0,44.0,-100.00,WSW,248,2.0,5.0,91,0.01,,,0.25,284.000000,,2013-05-17 19:50:00,
2013-05-17 13:58:00,47.0,43.0,-100.00,WNW,291,2.0,7.0,85,0.00,,,0.25,345.000000,,2013-05-17 19:58:00,
2013-05-17 14:30:00,47.0,43.0,-100.00,WNW,291,2.0,7.0,85,0.00,,,0.25,345.000000,,2013-05-17 20:30:00,
2013-05-17 14:40:00,47.0,43.0,-100.00,WNW,291,2.0,7.0,85,0.00,,,0.25,345.000000,,2013-05-17 20:40:00,
2013-05-17 14:49:00,47.0,43.0,-100.00,WNW,291,2.0,7.0,85,0.00,,,0.25,345.000000,,2013-05-17 20:49:00,
2013-05-17 15:26:00,49.0,44.0,-100.00,West,275,2.0,6.0,83,0.00,,,0.25,348.000000,,2013-05-17 21:26:00,
2013-05-17 15:39:00,49.0,44.0,-100.00,West,275,2.0,6.0,83,0.00,,,0.25,348.000000,,2013-05-17 21:39:00,
2013-05-17 15:49:00,49.0,44.0,-100.00,West,275,2.0,6.0,83,0.00,,,0.25,348.000000,,2013-05-17 21:49:00,
2013-05-17 15:57:00,49.0,44.0,-100.00,West,275,2.0,6.0,83,0.00,,,0.25,348.000000,,2013-05-17 21:57:00,
2013-05-17 16:28:00,53.0,43.0,-100.00,ENE,68,2.0,7.0,70,0.00,,,0.25,517.000000,,2013-05-17 22:28:00,
2013-05-17 16:38:00,53.0,43.0,-100.00,ENE,68,2.0,7.0,70,0.00,,,0.25,517.000000,,2013-05-17 22:38:00,
2013-05-17 16:47:00,53.0,43.0,-100.00,ENE,68,2.0,7.0,70,0.00,,,0.25,517.000000,,2013-05-17 22:47:00,
2013-05-17 16:54:00,53.0,43.0,-100.00,ENE,68,2.0,7.0,70,0.00,,,0.25,517.000000,,2013-05-17 22:54:00,
2013-05-17 17:23:00,55.0,44.0,-100.00,East,96,1.0,4.0,66,0.00,,,0.25,397.000000,,2013-05-17 23:23:00,
2013-05-17 17:37:00,55.0,44.0,-100.00,East,96,1.0,4.0,66,0.00,,,0.25,397.000000,,2013-05-17 23:37:00,
2013-05-17 17:47:00,55.0,44.0,-100.00,East,96,1.0,4.0,66,0.00,,,0.25,397.000000,,2013-05-17 23:47:00,
2013-05-17 17:54:00,55.0,44.0,-100.00,East,96,1.0,4.0,66,0.00,,,0.25,397.000000,,2013-05-17 23:54:00,
2013-05-17 18:21:00,47.0,40.0,-100.00,NNE,26,1.0,8.0,76,0.00,,,0.25,98.000000,,2013-05-18 00:21:00,
2013-05-17 18:33:00,47.0,40.0,-100.00,NNE,26,1.0,8.0,76,0.00,,,0.25,98.000000,,2013-05-18 00:33:00,
2013-05-17 18:44:00,47.0,40.0,-100.00,NNE,26,1.0,8.0,76,0.00,,,0.25,98.000000,,2013-05-18 00:44:00,
2013-05-17 18:54:00,47.0,40.0,-100.00,NNE,26,1.0,8.0,76,0.00,,,0.25,98.000000,,2013-05-18 00:54:00,
2013-05-17 19:24:00,44.0,42.0,-100.00,North,350,0.0,8.0,94,0.10,,,0.35,57.000000,,2013-05-18 01:24:00,
2013-05-17 19:32:00,44.0,42.0,-100.00,North,350,0.0,8.0,94,0.10,,,0.35,57.000000,,2013-05-18 01:32:00,
2013-05-17 19:42:00,44.0,42.0,-100.00,North,350,0.0,8.0,94,0.10,,,0.35,57.000000,,2013-05-18 01:42:00,
2013-05-17 19:52:00,44.0,42.0,-100.00,North,350,0.0,8.0,94,0.10,,,0.35,57.000000,,2013-05-18 01:52:00,
2013-05-17 20:22:00,46.0,44.0,-100.00,South,185,2.0,5.0,92,0.02,,,0.37,87.000000,,2013-05-18 02:22:00,
2013-05-17 20:31:00,46.0,44.0,-100.00,South,185,2.0,5.0,92,0.02,,,0.37,87.000000,,2013-05-18 02:31:00,
2013-05-17 20:42:00,46.0,44.0,-100.00,South,185,2.0,5.0,92,0.02,,,0.37,87.000000,,2013-05-18 02:42:00,
2013-05-17 20:53:00,46.0,44.0,-100.00,South,185,2.0,5.0,92,0.02,,,0.37,87.000000,,2013-05-18 02:53:00,
2013-05-17 21:22:00,44.0,43.0,-100.00,SSW,209,0.0,2.0,96,0.02,,,0.39,21.000000,,2013-05-18 03:22:00,
2013-05-17 21:32:00,44.0,43.0,-100.00,SSW,209,0.0,2.0,96,0.02,,,0.39,21.000000,,2013-05-18 03:32:00,
2013-05-17 21:43:00,44.0,43.0,-100.00,SSW,209,0.0,2.0,96,0.02,,,0.39,21.000000,,2013-05-18 03:43:00,
2013-05-17 21:53:00,44.0,43.0,-100.00,SSW,209,0.0,2.0,96,0.02,,,0.39,21.000000,,2013-05-18 03:53:00,
2013-05-17 22:23:00,43.0,42.0,-100.00,South,185,0.0,3.0,96,0.01,,,0.40,1.000000,,2013-05-18 04:23:00,
2013-05-17 22:32:00,43.0,42.0,-100.00,South,185,0.0,3.0,96,0.01,,,0.40,1.000000,,2013-05-18 04:32:00,
2013-05-17 22:42:00,43.0,42.0,-100.00,South,185,0.0,3.0,96,0.01,,,0.40,1.000000,,2013-05-18 04:42:00,
2013-05-17 22:52:00,43.0,42.0,-100.00,South,185,0.0,3.0,96,0.01,,,0.40,1.000000,,2013-05-18 04:52:00,
2013-05-17 23:22:00,42.0,41.0,-100.00,East,86,0.0,2.0,98,0.00,,,0.40,0.000000,,2013-05-18 05:22:00,
2013-05-17 23:31:00,42.0,41.0,-100.00,East,86,0.0,2.0,98,0.00,,,0.40,0.000000,,2013-05-18 05:31:00,
2013-05-17 23:42:00,42.0,41.0,-100.00,East,86,0.0,2.0,98,0.00,,,0.40,0.000000,,2013-05-18 05:42:00,
2013-05-17 23:51:00,42.0,41.0,-100.00,East,86,0.0,2.0,98,0.00,,,0.40,0.000000,,2013-05-18 05:51:00,